Temperature
8 8 8 8 8 9 9 9 9 9 10 10 10 10 10 10 10 11 11 11 11 12 12 11 12 12 12 11 11 11 11 11 11 11 12 12 12 12 11 11 11 11 11
7 7 7 8 8 8 8 8 8 9 9 9 9 9 9 10 10 10 11 11 11 11 11 11 11 11 11 11 11 11 11 11 11 11 11 11 11 11 11 11 11 11 11
7 7 7 7 7 7 7 8 8 8 8 8 9 9 9 9 9 10 10 10 10 11 11 11 11 11 11 11 11 11 11 11 11 11 11 11 11 11 11 11 11 11 11
6 6 6 6 6 7 7 7 7 7 7 8 8 8 8 9 9 9 9 10 10 10 10 10 10 10 10 11 11 11 11 11 11 11 11 11 11 11 11 11 11 10 10
5 5 5 6 6 6 6 6 6 6 7 7 7 7 8 8 8 9 9 9 9 10 10 10 10 10 10 10 10 10 10 10 10 10 10 10 11 11 10 10 10 10 10
5 5 5 5 5 5 5 5 5 6 6 6 6 7 7 8 8 8 9 9 9 9 9 9 10 10 10 10 10 10 10 10 10 10 10 10 10 10 10 10 10 10 10
4 4 4 4 4 5 5 5 5 5 5 5 5 6 7 7 8 8 8 8 8 9 9 9 9 9 9 9 9 9 10 10 10 10 10 10 10 10 10 10 10 10 10
3 3 3 4 4 4 4 4 4 4 4 5 5 5 5 6 7 7 7 8 8 8 8 8 8 9 9 9 9 9 9 9 9 9 9 9 9 9 10 10 10 9 9
3 3 3 3 3 3 3 3 3 3 4 4 4 4 5 5 5 6 6 7 7 7 8 8 8 8 8 8 8 8 9 9 9 9 9 9 9 9 9 9 9 9 9
2 2 2 2 3 3 3 3 3 3 3 3 4 4 4 4 4 5 5 6 6 7 7 7 7 7 7 8 8 8 8 8 8 8 8 9 9 9 9 9 9 9 9
2 2 2 2 2 2 2 2 2 2 2 3 3 3 3 4 4 4 4 5 5 6 6 6 7 7 7 7 7 7 8 8 8 8 8 8 8 8 8 8 8 8 8
1 1 1 1 1 2 2 2 2 2 2 2 2 3 3 3 3 4 4 4 4 5 5 6 6 6 6 7 7 7 7 7 7 7 8 8 8 8 8 8 8 8 8
0 0 0 1 1 1 1 1 1 1 2 2 2 2 2 2 3 3 3 3 3 4 4 5 5 6 6 6 6 6 7 7 7 7 7 7 7 7 7 7 7 7 7
-0 -0 -0 0 0 0 1 1 1 1 1 1 1 2 2 2 2 2 2 3 3 3 3 4 5 5 5 5 6 6 6 6 6 6 6 6 6 7 7 7 7 7 6
-1 -1 -1 -0 -0 -0 0 0 0 0 0 1 1 1 1 1 1 2 2 2 2 2 3 3 4 5 5 5 5 5 5 6 6 6 6 6 6 6 6 6 6 6 6
-2 -1 -1 -1 -1 -1 -1 -1 -0 -0 -0 -0 0 0 1 1 1 1 1 1 2 2 2 2 3 3 4 4 4 4 5 5 5 5 5 5 5 5 5 5 5 5 5
-2 -2 -2 -2 -1 -1 -1 -1 -1 -1 -1 -1 -0 -0 -0 -0 0 0 1 1 1 1 2 2 2 2 2 3 3 3 4 4 4 5 5 5 5 5 5 5 5 5 5
-2 -2 -2 -2 -2 -2 -2 -2 -2 -2 -1 -1 -1 -1 -1 -1 -0 -0 -0 0 0 1 1 1 1 2 2 2 2 3 3 3 4 4 4 4 4 4 4 4 4 4 4
-3 -3 -3 -3 -3 -3 -2 -2 -2 -2 -2 -2 -2 -1 -1 -1 -1 -1 -1 -0 -0 0 0 0 1 1 1 1 1 2 2 2 3 3 3 3 3 4 4 4 4 4 4
-3 -3 -3 -3 -3 -3 -3 -3 -3 -3 -3 -2 -2 -2 -2 -2 -2 -2 -1 -1 -1 -1 -1 -0 -0 0 0 0 1 1 1 2 2 2 2 2 3 3 3 3 3 3 3
-4 -4 -4 -4 -4 -4 -4 -4 -4 -3 -3 -3 -3 -2 -2 -2 -2 -2 -2 -2 -2 -1 -1 -1 -1 -1 -0 -0 -0 -0 0 1 1 1 2 2 2 2 2 2 2 2 2
-4 -4 -4 -4 -4 -4 -4 -4 -4 -4 -4 -4 -3 -3 -3 -3 -3 -2 -2 -2 -2 -2 -2 -2 -2 -1 -1 -1 -1 -1 -0 0 0 1 1 1 1 1 2 2 2 2 2
-5 -5 -5 -5 -5 -5 -5 -5 -5 -5 -4 -4 -4 -4 -4 -3 -3 -3 -3 -3 -3 -3 -2 -2 -2 -2 -2 -1 -1 -1 -1 -0 0 0 0 0 0 1 1 1 1 1 1
-6 -6 -6 -5 -5 -5 -5 -5 -5 -5 -5 -5 -5 -5 -4 -4 -4 -4 -4 -4 -3 -3 -3 -3 -3 -3 -2 -2 -2 -2 -1 -1 -1 -1 -1 -1 -0 -0 0 0 1 1 1
-6 -6 -6 -6 -6 -6 -6 -6 -6 -6 -6 -5 -5 -5 -5 -5 -5 -4 -4 -4 -4 -4 -4 -4 -4 -3 -3 -3 -3 -2 -2 -2 -2 -1 -1 -1 -1 -1 -1 -0 0 0 0
-7 -7 -7 -6 -6 -6 -6 -6 -6 -6 -6 -6 -6 -5 -5 -5 -5 -5 -4 -4 -4 -4 -4 -4 -4 -4 -4 -3 -3 -3 -2 -2 -2 -2 -2 -2 -2 -2 -2 -1 -1 -1 -0
Wind_Speed
4 5 4 4 4 4 4 4 4 3 3 3 3 2 2 2 2 3 3 4 3 2 2 2 3 3 3 4 4 4 4 5 5 6 6 6 5 5 5 6 6 6 6
5 5 4 4 4 4 4 4 4 3 3 2 3 3 2 2 2 2 3 4 4 4 3 2 2 3 4 3 3 3 3 4 5 5 5 5 5 4 5 5 5 5 5
5 5 4 4 5 5 5 4 4 4 3 3 2 3 3 2 2 1 1 3 4 5 5 4 3 3 4 4 4 3 3 4 5 5 5 5 4 3 4 5 5 5 5
5 5 4 4 5 5 5 4 2 2 2 2 2 2 2 1 2 1 1 3 4 5 5 5 4 4 4 5 4 4 4 4 5 6 6 5 4 3 4 5 5 6 5
5 5 4 5 5 5 4 4 2 2 2 2 3 3 2 2 2 2 2 3 4 5 5 6 6 5 5 6 5 5 5 5 5 6 6 6 5 4 4 4 5 6 6
5 5 4 5 5 3 3 3 3 2 2 2 3 4 4 3 3 2 3 2 3 5 5 5 5 5 5 6 6 5 6 6 5 5 7 7 6 5 5 4 4 5 6
4 3 4 4 4 2 3 3 3 2 2 2 2 4 4 4 3 2 2 1 1 2 4 5 5 5 4 5 5 6 6 5 6 6 6 8 7 7 6 6 5 5 6
4 3 3 3 3 2 3 3 3 2 2 1 1 2 2 2 2 2 1 2 2 1 2 4 5 5 4 3 3 4 5 5 5 6 6 7 8 8 7 6 5 6 6
4 4 4 3 3 2 2 2 2 2 2 2 2 1 1 2 3 2 3 2 1 1 2 3 3 4 4 4 4 4 4 5 5 6 6 6 8 8 8 7 6 6 6
5 3 3 4 3 3 2 2 3 3 2 3 3 2 2 2 2 2 2 3 3 2 2 2 2 3 5 4 4 4 5 5 5 6 6 6 6 9 9 8 7 7 6
4 4 3 3 2 3 3 3 3 3 2 3 3 3 3 3 3 3 4 4 4 2 2 2 3 3 5 5 5 5 6 6 5 5 6 6 6 7 9 9 8 7 7
3 4 4 3 3 3 3 3 3 3 3 4 3 3 3 3 3 3 4 5 5 4 3 2 2 3 4 5 5 5 6 6 7 6 6 5 6 6 6 8 9 8 7
3 3 4 3 3 4 4 4 3 4 4 4 4 4 4 4 4 3 4 4 5 5 3 3 3 3 4 4 5 7 7 7 7 7 7 6 5 5 5 5 7 7 7
3 4 5 4 4 5 5 5 4 4 4 5 5 4 4 4 4 4 4 4 5 5 4 4 3 3 4 4 5 7 6 7 7 6 7 6 5 5 5 5 5 6 6
4 5 5 5 5 5 5 4 4 5 4 5 5 5 5 4 4 4 4 4 5 6 7 4 2 3 3 4 5 6 6 7 7 8 7 7 6 5 6 5 5 5 6
4 4 4 5 5 5 4 4 4 5 5 5 4 5 5 4 4 4 4 5 5 6 7 4 3 3 4 5 6 6 6 7 8 8 8 7 7 6 7 7 6 6 5
4 4 4 4 4 4 4 4 4 5 6 6 5 6 6 5 5 4 4 4 5 5 8 6 4 3 4 4 4 5 6 6 7 8 8 8 8 8 8 8 8 7 6
4 5 4 4 5 4 4 4 5 5 6 6 6 6 6 5 5 5 4 5 5 5 6 7 5 4 5 4 4 4 5 5 5 7 8 8 9 9 8 9 9 8 8
4 5 4 4 4 4 4 5 5 5 6 6 6 6 6 5 6 5 5 5 4 5 5 5 6 4 4 4 4 4 5 4 5 7 8 8 9 9 9 9 10 10 9
4 4 4 5 4 5 5 5 5 5 6 6 6 6 6 6 6 6 5 5 5 4 5 5 5 4 4 4 3 4 5 4 4 5 6 7 8 9 9 9 10 10 10
5 4 5 5 5 5 5 5 5 5 5 6 6 5 5 6 7 6 6 5 5 4 4 5 5 4 4 3 4 4 5 4 4 4 4 4 4 5 6 9 10 10 10
4 4 5 5 5 5 8 9 7 5 5 6 6 6 6 6 7 9 9 9 8 7 6 6 6 6 6 5 4 4 5 4 4 3 4 5 4 5 5 7 10 11 11
4 5 5 5 5 6 9 9 9 6 5 6 6 5 6 5 7 6 7 8 8 10 10 8 7 7 6 6 5 5 6 6 5 4 3 5 4 6 5 8 11 11 11
4 5 5 5 5 6 8 9 9 6 5 5 6 6 6 6 6 6 6 6 6 6 8 7 7 7 7 6 6 7 7 5 4 4 4 5 4 4 5 7 10 10 11
5 5 5 5 5 6 8 9 8 4 4 5 6 6 6 6 8 8 6 6 6 6 7 9 10 10 11 11 9 5 5 5 5 4 3 3 3 3 4 5 8 10 9
5 5 6 5 5 5 8 9 8 4 4 5 5 5 8 8 9 9 6 6 7 6 6 6 7 8 7 8 10 8 7 6 4 4 3 3 2 1 3 3 4 5 7
Wind_Direction
14 8 7 11 5 13 359 337 334 343 339 351 349 354 28 60 103 119 124 148 155 154 154 146 157 156 154 149 139 131 133 136 131 127 128 129 129 131 130 122 121 116 115
13 4 357 360 5 360 340 328 336 340 336 346 337 347 359 25 77 114 152 166 171 179 182 184 187 183 179 174 167 158 154 156 155 145 137 132 137 146 153 148 137 135 132
14 5 353 355 355 346 339 334 343 348 348 348 330 333 339 359 18 39 174 175 181 193 194 197 205 206 200 197 190 182 181 180 181 175 165 156 148 150 169 170 160 153 153
5 4 355 347 348 347 343 339 347 345 332 329 320 314 315 321 307 295 252 205 187 189 195 198 206 216 214 211 207 210 210 208 196 193 184 180 179 180 180 183 184 182 175
5 4 349 343 347 346 340 335 342 327 320 327 324 317 306 276 262 257 254 231 198 188 185 193 202 214 220 222 219 227 230 217 204 203 198 199 201 201 201 198 193 193 193
3 1 347 343 345 340 338 336 328 328 322 311 318 319 301 272 252 238 240 229 205 197 190 189 192 208 219 223 224 232 240 226 221 216 211 211 207 206 210 212 207 205 205
352 355 346 341 341 334 325 327 324 316 322 329 334 326 304 268 239 230 224 225 208 201 191 187 191 192 204 223 227 233 238 234 234 225 218 216 215 216 219 222 218 214 215
347 342 343 329 328 324 321 325 336 318 313 324 328 319 307 299 289 280 253 231 221 190 197 203 196 190 195 207 227 232 243 241 238 226 223 223 220 220 223 225 220 216 214
334 336 329 325 319 320 299 313 312 308 295 294 305 282 275 259 314 268 253 250 256 257 246 229 204 200 195 194 209 221 241 248 245 240 229 230 225 219 220 221 224 220 217
327 315 312 315 315 306 289 297 313 307 282 276 282 281 277 287 266 287 277 273 266 258 251 252 223 208 202 193 204 221 233 245 247 245 239 235 234 225 222 223 225 219 214
322 313 302 305 301 301 296 295 304 303 286 274 275 284 287 290 261 258 271 277 286 272 269 264 233 214 209 197 205 217 222 227 235 243 246 243 240 241 229 226 226 218 214
311 311 297 295 290 286 284 286 283 283 285 279 272 271 273 272 258 257 260 264 271 277 273 263 246 221 212 201 207 216 218 225 231 237 245 251 244 247 244 232 226 221 215
297 298 303 295 293 292 291 287 269 269 271 274 267 264 262 268 267 267 260 264 275 281 270 260 252 229 223 213 214 214 218 226 231 234 238 247 247 247 248 240 230 222 214
283 299 310 292 286 286 287 287 275 266 263 265 267 267 266 266 265 260 260 262 270 277 266 255 260 251 238 220 227 217 219 224 227 233 237 239 250 249 241 242 245 226 218
293 299 301 291 283 280 277 278 273 271 265 263 265 265 267 266 265 257 254 244 243 261 264 255 252 253 254 243 233 221 224 229 230 229 232 234 238 247 236 233 242 242 225
287 285 289 289 281 277 278 274 275 271 272 267 265 261 264 268 267 257 252 249 246 246 260 261 265 273 262 261 245 230 224 231 234 230 231 231 232 242 238 231 235 239 234
275 272 280 281 276 275 268 262 268 276 272 271 272 266 264 265 264 256 257 253 253 248 256 269 275 275 266 264 267 250 234 228 232 230 231 231 233 236 241 235 230 231 235
275 273 276 274 272 275 273 268 270 274 272 270 270 268 266 265 262 257 253 253 254 254 251 261 271 266 265 255 258 255 249 231 228 232 233 235 236 235 239 238 228 227 230
275 278 275 268 267 271 274 270 265 269 270 272 269 268 267 262 264 263 257 253 256 259 253 252 265 269 266 260 266 271 256 239 243 234 232 237 238 239 239 240 233 230 232
269 272 271 263 261 265 268 266 268 270 272 275 272 268 267 259 258 261 258 254 253 256 253 249 255 261 259 252 246 256 255 235 239 241 241 243 244 241 241 243 240 236 237
274 271 271 264 260 263 260 261 268 271 274 279 279 273 269 265 263 262 261 256 252 251 249 248 249 257 258 248 246 254 255 250 241 234 229 241 246 242 244 246 244 242 243
271 275 272 266 264 269 275 279 278 274 276 274 276 280 275 269 267 269 271 271 263 254 248 247 249 246 249 249 252 264 255 246 249 227 228 239 231 235 241 242 248 246 247
275 274 269 262 261 267 277 280 282 282 273 272 271 276 278 275 275 268 272 274 271 271 264 254 250 248 248 242 242 254 258 249 253 242 235 245 230 236 247 248 251 249 250
273 272 273 267 266 272 281 283 284 279 272 270 269 268 272 271 271 272 268 266 264 269 267 261 253 253 255 252 240 245 257 264 267 246 234 249 242 244 253 248 246 248 254
275 275 277 272 270 275 281 281 281 271 270 273 276 276 275 272 274 278 271 267 269 272 274 269 263 260 258 257 255 250 250 245 256 243 223 236 246 267 251 238 241 242 247
275 280 283 277 272 270 279 282 281 271 270 274 278 277 278 278 278 277 268 262 265 270 272 276 274 268 264 262 257 241 234 236 245 249 219 221 240 263 261 238 232 249 253
Height
1530 1531 1531 1532 1533 1533 1534 1535 1536 1536 1537 1538 1539 1540 1541 1541 1542 1543 1544 1545 1545 1546 1547 1548 1549 1549 1550 1551 1552 1552 1553 1553 1554 1556 1556 1557 1558 1559 1559 1560 1560 1561 1561
1529 1529 1530 1530 1531 1531 1532 1533 1534 1535 1535 1536 1537 1538 1538 1539 1540 1541 1542 1542 1543 1544 1545 1546 1547 1548 1549 1550 1550 1551 1552 1552 1553 1554 1555 1556 1557 1558 1558 1559 1559 1560 1560
1527 1528 1528 1529 1529 1530 1530 1531 1532 1532 1533 1533 1534 1535 1536 1536 1537 1538 1539 1540 1541 1542 1543 1543 1545 1546 1547 1548 1548 1549 1550 1551 1552 1552 1553 1554 1555 1556 1557 1557 1558 1558 1559
1525 1526 1526 1526 1527 1527 1528 1529 1529 1530 1530 1531 1531 1532 1533 1533 1534 1535 1536 1537 1538 1539 1540 1541 1542 1543 1544 1545 1546 1547 1548 1549 1549 1550 1551 1552 1553 1554 1555 1555 1556 1556 1557
1523 1523 1524 1524 1525 1525 1526 1526 1527 1527 1527 1528 1528 1529 1529 1530 1531 1532 1534 1534 1535 1536 1537 1538 1539 1540 1541 1543 1544 1545 1545 1546 1547 1548 1549 1550 1551 1552 1552 1553 1554 1554 1555
1521 1521 1521 1522 1522 1523 1523 1523 1524 1525 1525 1525 1525 1525 1526 1527 1528 1529 1530 1531 1532 1533 1534 1535 1536 1537 1538 1540 1541 1542 1543 1544 1544 1545 1546 1547 1548 1549 1550 1551 1551 1552 1552
1518 1519 1519 1519 1520 1520 1520 1521 1521 1521 1522 1523 1523 1522 1523 1523 1524 1525 1527 1528 1529 1530 1531 1532 1533 1533 1535 1536 1537 1538 1539 1540 1541 1542 1543 1544 1545 1546 1547 1548 1549 1549 1550
1516 1516 1516 1516 1517 1517 1517 1518 1518 1519 1519 1520 1521 1520 1520 1521 1520 1522 1523 1525 1525 1526 1527 1528 1529 1530 1531 1532 1533 1534 1535 1536 1538 1539 1540 1541 1542 1543 1544 1545 1545 1546 1547
1513 1513 1513 1513 1514 1514 1514 1515 1515 1516 1516 1517 1519 1520 1519 1518 1518 1518 1519 1520 1521 1522 1524 1525 1525 1526 1527 1528 1529 1530 1532 1533 1534 1535 1536 1537 1538 1539 1540 1541 1542 1543 1543
1509 1510 1510 1510 1510 1511 1511 1512 1512 1513 1513 1514 1515 1516 1517 1517 1517 1515 1515 1516 1517 1518 1519 1520 1521 1522 1523 1524 1525 1526 1527 1529 1530 1531 1532 1533 1534 1535 1536 1537 1538 1539 1540
1506 1506 1507 1507 1507 1507 1508 1508 1509 1510 1510 1510 1511 1512 1513 1513 1514 1513 1512 1512 1512 1513 1514 1515 1516 1517 1519 1520 1520 1522 1523 1524 1525 1527 1528 1529 1529 1530 1531 1532 1534 1534 1535
1503 1503 1503 1503 1503 1504 1504 1504 1505 1505 1506 1506 1507 1507 1508 1509 1509 1509 1509 1508 1508 1508 1509 1510 1511 1512 1514 1515 1516 1517 1518 1519 1520 1522 1523 1524 1525 1526 1526 1527 1529 1530 1531
1498 1498 1499 1499 1499 1499 1500 1500 1500 1501 1501 1502 1502 1503 1503 1504 1505 1506 1506 1504 1504 1504 1504 1505 1506 1507 1509 1510 1511 1512 1513 1514 1515 1516 1518 1519 1520 1521 1522 1522 1524 1525 1526
1494 1494 1494 1495 1495 1495 1495 1495 1495 1496 1496 1497 1497 1498 1498 1499 1500 1501 1501 1501 1500 1499 1499 1499 1500 1501 1503 1504 1505 1507 1508 1509 1510 1511 1512 1513 1515 1516 1517 1518 1519 1520 1521
1490 1490 1490 1490 1490 1491 1491 1490 1490 1490 1491 1491 1492 1493 1493 1494 1495 1495 1496 1497 1498 1495 1493 1493 1494 1495 1497 1499 1500 1501 1502 1503 1504 1505 1506 1508 1509 1510 1511 1512 1513 1515 1516
1487 1486 1486 1486 1486 1486 1486 1485 1485 1486 1486 1486 1486 1487 1487 1488 1489 1490 1491 1491 1492 1491 1489 1487 1489 1490 1491 1492 1494 1495 1496 1497 1498 1499 1501 1502 1503 1504 1506 1507 1508 1509 1510
1482 1482 1482 1481 1481 1481 1481 1481 1481 1481 1481 1481 1481 1481 1481 1482 1482 1483 1484 1485 1486 1486 1484 1482 1484 1485 1486 1486 1487 1488 1490 1490 1491 1493 1494 1496 1497 1498 1500 1501 1502 1503 1504
1478 1477 1477 1477 1476 1476 1476 1476 1476 1476 1476 1476 1475 1475 1475 1476 1476 1477 1478 1478 1479 1479 1479 1477 1477 1479 1480 1480 1481 1482 1483 1484 1485 1486 1488 1490 1491 1492 1494 1495 1496 1497 1498
1473 1473 1472 1472 1471 1471 1471 1471 1471 1470 1471 1470 1470 1469 1469 1470 1470 1470 1471 1472 1472 1473 1473 1473 1471 1472 1473 1475 1475 1476 1477 1477 1479 1480 1481 1483 1484 1486 1487 1488 1489 1491 1491
1468 1467 1467 1467 1466 1466 1466 1465 1465 1465 1465 1465 1464 1464 1464 1464 1464 1464 1465 1465 1466 1467 1467 1467 1466 1466 1467 1468 1470 1470 1470 1471 1472 1474 1475 1476 1477 1479 1480 1482 1483 1484 1485
1463 1462 1462 1462 1461 1461 1460 1460 1460 1460 1459 1459 1459 1459 1459 1459 1459 1459 1460 1460 1461 1461 1461 1461 1460 1460 1461 1462 1463 1463 1464 1464 1466 1467 1468 1469 1471 1472 1473 1474 1476 1477 1478
1457 1457 1457 1456 1456 1456 1456 1456 1455 1454 1454 1454 1453 1453 1453 1453 1453 1454 1454 1454 1455 1455 1454 1455 1454 1454 1454 1456 1457 1458 1458 1458 1458 1461 1461 1462 1464 1464 1465 1467 1469 1470 1471
1452 1452 1451 1451 1451 1451 1451 1451 1450 1450 1449 1449 1448 1448 1448 1448 1449 1448 1448 1448 1448 1449 1449 1450 1449 1448 1449 1450 1452 1452 1453 1452 1452 1453 1455 1455 1457 1457 1459 1460 1462 1463 1465
1447 1446 1446 1446 1446 1446 1446 1445 1445 1445 1444 1444 1444 1443 1443 1443 1443 1443 1442 1442 1442 1442 1443 1443 1443 1443 1444 1445 1446 1446 1446 1447 1447 1448 1449 1449 1449 1450 1452 1453 1455 1456 1457
1442 1441 1441 1441 1440 1440 1441 1440 1441 1440 1439 1439 1439 1439 1439 1438 1438 1438 1438 1437 1436 1436 1436 1437 1437 1437 1438 1439 1440 1441 1441 1441 1439 1440 1442 1443 1442 1443 1444 1445 1447 1449 1450
1437 1437 1436 1436 1436 1436 1436 1436 1437 1436 1435 1434 1434 1434 1434 1433 1433 1433 1432 1431 1430 1430 1430 1430 1430 1431 1431 1432 1433 1435 1435 1434 1433 1433 1434 1436 1436 1437 1437 1437 1439 1441 1442